Location: El Mouella
(16.4949°N, 9.1594°W)
Time: 02:18:50
(UTC+00:00)

H-2A R/B - Pass Details

Date: 01 October 2020
Orbit: 734 x 836 km, 98.2° (Epoch: 20 October)

Event Time Altitude Azimuth Distance (km) Brightness Sun altitude
Exits shadow 19:05:17 11° 111° (ESE) 2,192 3.8 -10.4°
Maximum altitude 19:08:15 18° 73° (ENE) 1,804 3.3 -11.1°
Drops below altitude 10° 19:11:35 10° 31° (NNE) 2,304 4.2 -11.9°
Sets 19:14:36 0° 13° (NNE) 3,252 5.1 -12.6°
